Regional Weather Roundup
Issued by NWS

Home | Current Version | Previous Version | Text Only | Print | Product List | Glossary Off
Versions: 1 2 3 4 5 6 7 8 9 10 11 12 13 14 15 16 17 18 19 20 21 22 23 24 25 26 27 28 29 30 31 32 33 34 35 36 37 38 39 40 41 42 43 44 45 46 47 48 49 50

520
ASUS43 KMPX 221810
RWRMN
WEATHER ROUNDUP FOR MINNESOTA
NATIONAL WEATHER SERVICE TWIN CITIES/CHANHASSEN MN
100 PM CDT TUE AUG 22 2017


NOTE: "FAIR" INDICATES FEW OR NO CLOUDS BELOW 12,000 FEET WITH NO
SIGNIFICANT WEATHER AND/OR OBSTRUCTIONS TO VISIBILITY. N/A MEANS
CURRENT SKY AND/OR WEATHER CONDITIONS ARE NOT AVAILABLE.

MNZ060>063-068>070-221900-
   Twin Cities Metro

CITY           SKY/WX    TMP DP  RH WIND       PRES   REMARKS
TWIN CITIES    MOSUNNY   74  49  41 NW14G24   30.03F
6HR MIN TEMP:  60; 6HR MAX TEMP:  74;

ST PAUL        SUNNY     73  50  44 NW23G29   30.03F
CRYSTAL        MOSUNNY   73  47  39 W12G28    30.02F
BLAINE         MOSUNNY   73  50  43 W16G25    30.03F
LAKEVILLE      SUNNY     70  54  56 W12       30.05F
EDEN PRAIRIE   SUNNY     74  49  41 NW14G24   30.04F
6HR MIN TEMP:  61; 6HR MAX TEMP:  74;

SOUTH ST PAUL  SUNNY     72  46  39 NW16G25   30.03F
LAKE ELMO      FAIR      72  54  53 W12       30.04S
$$
MNZ001>005-007-008-013>017-022>024-027-028-221900-
   Northwest Minnesota

CITY           SKY/WX    TMP DP  RH WIND       PRES   REMARKS
BEMIDJI        MOSUNNY   70  48  46 NW20      30.02S
HALLOCK        MOSUNNY   73  41  31 NW18G26   30.02F
ROSEAU         SUNNY     70  54  56 NW20G25   29.98F
WARROAD        MOSUNNY   66  55  68 W17       29.98S
THIEF RVR FALL MOSUNNY   71  43  36 NW21G29   30.04F
CROOKSTON      MOSUNNY   72  43  35 N22G33    30.05F
FOSSTON        SUNNY     70  45  40 NW18G28   30.05S
DETROIT LAKES  MOSUNNY   68  45  42 NW16G22   30.08F
MOORHEAD       SUNNY     73  41  31 N18G25    30.09S
PARK RAPIDS    MOSUNNY   71  48  43 NW23G33   30.04F
MAHNOMEN       MOCLDY    70  47  44 NW16G23   30.05F
$$
MNZ006-009>011-018-025>026-221900-
   North Central Minnesota

CITY           SKY/WX    TMP DP  RH WIND       PRES   REMARKS
BAUDETTE       CLOUDY    67  52  58 NW23      29.95S
FLAG ISLAND    PTSUNNY   64  54  68 NW10      29.95R
INTL FALLS     PTSUNNY   65  52  62 W14G24    29.92S
6HR MIN TEMP:  50; 6HR MAX TEMP:  66;

WASKISH        CLOUDY    66  50  55 W20G26    29.98S
BIG FORK       MOSUNNY   64  50  59 NW6G18    29.96S
LONGVILLE      MOSUNNY   68  46  45 NW14G24   30.01S
GRAND RAPIDS   PTSUNNY   66  50  56 NW21G26   29.99S
CRANE LAKE     MOSUNNY   64  54  68 NW3       29.91F
ORR            PTSUNNY   63  50  63 NW9G21    29.90S
COOK           PTSUNNY   63  52  67 W15G23    29.93S
WALKER         MOCLDY    67  46  46 NW18G28   30.01F
$$
MNZ012-019>021-037-221900-
   Northeast Minnesota

CITY           SKY/WX    TMP DP  RH WIND       PRES   REMARKS
DULUTH         PTSUNNY   65  50  58 NW16G26   29.93F
6HR MIN TEMP:  52; 6HR MAX TEMP:  67;

ELY            PTSUNNY   63  48  59 W15G22    29.89F
HIBBING        CLOUDY    62  48  60 NW15G25   29.95S
EVELETH        MOSUNNY   63  42  46 W15G24    29.95R
DULUTH HARBOR  MOSUNNY   70  54  56 W16G25    29.93S
TWO HARBORS    PTSUNNY   70  55  60 NW6       29.89S
SILVER BAY     PTSUNNY   66  52  59 W5        29.88R
GRAND MARAIS     N/A     71  51  49 VRB3G20   29.81S
$$
MNZ029>031-032-039>041-046>048-054>057-064-221900-
   West Central Minnesota

CITY           SKY/WX    TMP DP  RH WIND       PRES   REMARKS
FERGUS FALLS   SUNNY     70  50  49 NW17      30.09F
WHEATON        SUNNY     72  45  37 NW15G21   30.14S
MORRIS         SUNNY     72  50  46 NW16G24   30.11S
ALEXANDRIA     SUNNY     69  49  48 NW20G25   30.11S
ELBOW LAKE     FAIR      67  50  53 W14       30.11F
WADENA         MOSUNNY   68  48  49 NW15G23   30.07S
GLENWOOD       SUNNY     70  50  49 NW16G23   30.11S
APPLETON       SUNNY     72  46  40 NW15G23   30.12S
BENSON         SUNNY     73  46  38 N13G21    30.13S
ORTONVILLE     SUNNY     72  45  37 MISG      30.13F
MADISON        SUNNY     73  48  40 NW15G21   30.13F
WILLMAR        FAIR      72  54  53 W14G22    30.12S
$$
MNZ033>034-036-042>043-049>051-058-059-221900-
   Central Minnesota

CITY           SKY/WX    TMP DP  RH WIND       PRES   REMARKS
ST CLOUD       MOSUNNY   73  50  44 NW20G26   30.05S
6HR MIN TEMP:  53; 6HR MAX TEMP:  73;

SAUK CENTRE    FAIR      69  51  52 NW18      30.09S
PAYNESVILLE    SUNNY     70  51  50 NW17G25   30.09S
PINE RIVER     MOSUNNY   66  46  48 NW14G20   30.06S
BRAINERD       MOSUNNY   69  48  47 W18G31    30.03F
STAPLES        SUNNY     70  45  40 NW18G25   30.06S
LONG PRAIRIE   FAIR      68  46  45 W15G24    30.08S
LITTLE FALLS   MOSUNNY  N/A N/A N/A MISG        N/A
LITCHFIELD     SUNNY     73  52  46 NW15G25   30.09S
BUFFALO        SUNNY     71  50  46 W15G21    30.06F
MAPLE LAKE     SUNNY     72  52  49 W13       30.07S
HUTCHINSON     SUNNY     71  55  56 W14G20    30.10S
$$
MNZ037-044-045-052-053-221900-
   East Central Minnesota

CITY           SKY/WX    TMP DP  RH WIND       PRES   REMARKS
PRINCETON      MOSUNNY   73  48  40 W18G24    30.03S
MORA           MOSUNNY   66  46  48 NW16      30.03S
CAMBRIDGE      MOSUNNY   73  54  49 W17G23    30.02F
RUSH CITY      PTSUNNY   71  50  47 W9G20     30.01  HAZE
MOOSE LAKE     PTSUNNY   68  48  49 W9G18     29.97S
HINCKLEY       MOCLDY    70  52  52 W12G22    30.00S
CLOQUET        PTSUNNY   64  46  52 W17G25    29.96S
MCGREGOR       PTSUNNY   68  50  52 NW15G21   30.00S
$$
MNZ071>073-080-081-089-090-097-098-221900-
   Southwest Minnesota

CITY           SKY/WX    TMP DP  RH WIND       PRES   REMARKS
MONTEVIDEO     SUNNY     73  54  49 N9G17     30.12F
GRANITE FALLS  SUNNY     72  51  47 W14G20    30.14F
CANBY          SUNNY     73  44  36 W17G23    30.15F
MARSHALL       SUNNY     71  49  45 NW18      30.13F
REDWOOD FALLS  SUNNY     72  51  47 NW13G22   30.11F
OLIVIA         SUNNY     70  50  49 NW12G22   30.11S
PIPESTONE      SUNNY     72  41  33 N15G26    30.17F
WINDOM         SUNNY     70  45  40 NW17G26   30.14F
JACKSON        SUNNY     68  50  52 NW17G23   30.15S
TRACY          SUNNY     70  52  52 NW15      30.15S
SLAYTON        SUNNY     68  42  38 NW15      30.17S
$$
MNZ065>067-074>077-082>085-091>093-221900-
   South Central Minnesota

CITY           SKY/WX    TMP DP  RH WIND       PRES   REMARKS
MANKATO        SUNNY     70  53  54 W18       30.09F
NEW ULM        SUNNY     70  50  49 NW17      30.10F
ST JAMES       SUNNY     72  54  53 W9        30.13S
FAIRMONT       SUNNY     69  52  54 NW13G20   30.13S
GLENCOE        SUNNY     71  57  60 W14G22    30.08S
FARIBAULT      SUNNY     70  52  52 W15G21    30.08S
OWATONNA       SUNNY     70  54  56 W17G23    30.08S
WASECA         SUNNY     70  54  56 NW14      30.10F
ALBERT LEA     SUNNY     72  54  53 NW9G16    30.09S
$$
MNZ078>079-086>088-094>096-221900-
   Southeast Minnesota

CITY           SKY/WX    TMP DP  RH WIND       PRES   REMARKS
ROCHESTER      SUNNY     69  55  60 NW17      30.06S
6HR MIN TEMP:  59; 6HR MAX TEMP:  69;

RED WING       SUNNY     73  45  35 NW15      30.02S
STANTON        SUNNY     71  53  51 NW10G17   30.04F
DODGE CENTER   MOSUNNY   68  52  56 NW16      30.07S
WINONA         SUNNY     72  52  49 NW14      30.01S
AUSTIN         SUNNY     70  52  52 NW16G22   30.08S
PRESTON        MOSUNNY   68  52  56 NW13      30.06R
$$
ABBREVIATIONS USED IN REMARKS
   TC - TEMPERATURES IN CELSIUS
  WCI - WIND CHILL INDEX
   HX - HEAT INDEX
  VSB - VISIBILITY
$$




USA.gov is the U.S. government's official web portal to all federal, state and local government web resources and services.